Karlovy Vary, Czech Republic

2:52 AM CET on December 15, 2017 (GMT +0100)
Karlovy Vary

Weather History for LKKV - March, 2014

Change the Weather History Date:

Tuesday, March 4, 2014

  Actual Average (EDQM) Record (EDQM)
Temperature  
Mean Temperature 38 °F -  
Max Temperature 41 °F 37 °F 57 °F (1998)
Min Temperature 34 °F 27 °F 17 °F (2005)
Degree Days  
Heating Degree Days 28    
Moisture  
Dew Point 36 °F    
Average Humidity 91    
Maximum Humidity 100    
Minimum Humidity 75    
Precipitation  
Precipitation 0.02 in - - ()
Sea Level Pressure  
Sea Level Pressure 29.55 in    
Wind  
Wind Speed 5 mph ()    
Max Wind Speed 9 mph    
Max Gust Speed -    
Visibility 3.4 miles    
Events Fog , Rain    
Averages and records for this station are not official NWS values.
T = Trace of Precipitation, MM = Missing Value Source: Averaged Metar Reports

Daily Weather History Graph

Daily Weather History Graph

Search for Another Location

Airport or City:

Trip Planner

Search our weather history database for the weather conditions in past years. The results will help you decide how hot, cold, wet, or windy it might be!

Date:

Astronomy

Mar. 04, 2014 Rise Set
Actual Time 6:46 AM CET 5:54 PM CET
Civil Twilight 6:13 AM CET 6:27 PM CET
Nautical Twilight 5:36 AM CET 7:04 PM CET
Astronomical Twilight 4:58 AM CET 7:42 PM CET
Moon 7:58 AM CET (3/4) 10:10 PM CET (3/4)
Length of Visible Light 12h 13m
Length of Day
11h 08m
Waxing Crescent, 13% of the Moon is Illuminated
Mar 4
Waxing Crescent
Mar 8
First Quarter
Mar 16
Full
Mar 24
Last Quarter
Mar 30
New

Hourly Weather History & Observations

Time (CET) Temp. Windchill Dew Point Humidity Pressure Visibility Wind Dir Wind Speed Gust Speed Precip Events Conditions
12:00 AM 35 °F - 32 °F 83%  in 9 mi NE 4.5 mph - -   Scattered Clouds
12:00 AM 35.6 °F 31.7 °F 32.0 °F 87% 29.42 in - NE 4.6 mph - N/A   Clear
1:00 AM 35 °F - 33 °F 89%  in 9 mi NE 6.7 mph - -   Partly Cloudy
1:00 AM 33.8 °F 28.6 °F 32.0 °F 93% 29.42 in 6.2 mi NE 5.8 mph - N/A   Scattered Clouds
2:00 AM 38 °F - 34 °F 81%  in 9 mi ENE 6.7 mph - -   Mostly Cloudy
2:00 AM 37.4 °F 32.8 °F 33.8 °F 87% 29.44 in 6.2 mi NE 5.8 mph - N/A   Mostly Cloudy
3:00 AM 37 °F - 34 °F 86%  in 7 mi NE 6.7 mph - -   Mostly Cloudy
3:00 AM 37.4 °F 32.8 °F 33.8 °F 87% 29.42 in 6.2 mi NE 5.8 mph - N/A   Mostly Cloudy
4:00 AM 38 °F - 35 °F 83%  in 7 mi NE 4.5 mph - -   Mostly Cloudy
4:00 AM 37.4 °F 33.8 °F 35.6 °F 93% 29.44 in 6.2 mi NE 4.6 mph - N/A   Mostly Cloudy
4:09 AM 37.4 °F 32.8 °F 35.6 °F 93% 29.44 in 5.0 mi NE 5.8 mph - N/A Rain Light Rain
5:00 AM 37 °F - 35 °F 91%  in 3 mi NE 6.7 mph - - Rain Light Rain
5:00 AM 37.4 °F 32.8 °F 35.6 °F 93% 29.44 in 3.1 mi NE 5.8 mph - N/A Rain Light Rain
6:00 AM 37 °F - 36 °F 92%  in 2 mi East 8.9 mph - - Rain Light Rain
6:00 AM 37.4 °F 30.8 °F 35.6 °F 93% 29.44 in - ENE 9.2 mph - N/A Rain Light Rain
6:26 AM 37.4 °F 32.8 °F 35.6 °F 93% 29.47 in 3.1 mi East 5.8 mph - N/A Rain Light Rain
7:00 AM 36 °F - 35 °F 95%  in 2 mi North 2.2 mph - - Rain Light Rain
7:00 AM 35.6 °F - 35.6 °F 100% 29.47 in 5.0 mi Variable 2.3 mph - N/A   Overcast
7:30 AM 37.4 °F 33.8 °F 35.6 °F 93% 29.50 in 3.1 mi NE 4.6 mph - N/A   Mostly Cloudy
7:49 AM 37.4 °F 31.4 °F 35.6 °F 93% 29.50 in 0.9 mi ENE 8.1 mph - N/A   Mostly Cloudy
8:00 AM 37 °F - 36 °F 92%  in 1 mi ENE 8.9 mph - -   Mist
8:00 AM 37.4 °F 31.4 °F 35.6 °F 93% 29.50 in 0.6 mi ENE 8.1 mph - N/A   Overcast
8:06 AM 37.4 °F 31.4 °F 35.6 °F 93% 29.50 in 0.2 mi ENE 8.1 mph - N/A Fog Fog
8:30 AM 37.4 °F 32.1 °F 35.6 °F 93% 29.50 in 0.4 mi ENE 6.9 mph - N/A Fog Fog
9:00 AM 37 °F - 37 °F 98%  in 1 mi ENE 6.7 mph - - Rain Light Drizzle
9:00 AM 37.4 °F 32.1 °F 37.4 °F 100% 29.50 in 0.6 mi ENE 6.9 mph - N/A Fog Light Drizzle
9:13 AM 37.4 °F 32.1 °F 37.4 °F 100% 29.53 in 0.9 mi ENE 6.9 mph - N/A   Mostly Cloudy
9:30 AM 37.4 °F 31.4 °F 37.4 °F 100% 29.53 in 1.6 mi East 8.1 mph - N/A   Mostly Cloudy
9:46 AM 37.4 °F 32.1 °F 37.4 °F 100% 29.53 in 0.9 mi ENE 6.9 mph - N/A   Light Drizzle
10:00 AM 38 °F - 37 °F 94%  in 1 mi East 8.9 mph - - Rain Light Rain
10:00 AM 37.4 °F 32.1 °F 37.4 °F 100% 29.53 in 0.9 mi East 6.9 mph - N/A Rain Light Rain
10:30 AM 37.4 °F 32.8 °F 35.6 °F 93% 29.53 in 3.1 mi ESE 5.8 mph - N/A Rain Light Rain
11:00 AM 39 °F - 37 °F 92%  in 1 mi NNE 6.7 mph - - Rain Light Rain
11:00 AM 39.2 °F - 37.4 °F 93% 29.53 in 3.1 mi Variable 2.3 mph - N/A   Mostly Cloudy
11:30 AM 39.2 °F 35.0 °F 37.4 °F 93% 29.56 in 1.9 mi North 5.8 mph - N/A   Mostly Cloudy
12:00 PM 40 °F - 38 °F 88%  in 2 mi East 8.9 mph - -   Mist
12:00 PM 39.2 °F 34.2 °F 39.2 °F 100% 29.56 in 2.5 mi NE 6.9 mph - N/A   Mostly Cloudy
12:30 PM 41.0 °F 35.8 °F 39.2 °F 93% 29.56 in 2.8 mi NE 8.1 mph - N/A   Mostly Cloudy
1:00 PM 40 °F - 37 °F 86%  in 3 mi East 8.9 mph - -   Mist
1:00 PM 41.0 °F 35.8 °F 37.4 °F 87% 29.56 in 3.1 mi East 8.1 mph - N/A   Mostly Cloudy
1:30 PM 41.0 °F 37.1 °F 37.4 °F 87% 29.56 in 3.7 mi NE 5.8 mph - N/A   Mostly Cloudy
2:00 PM 41 °F - 37 °F 80%  in 4 mi NE 4.5 mph - -   Mist
2:00 PM 41.0 °F 37.1 °F 35.6 °F 81% 29.59 in 4.3 mi East 5.8 mph - N/A   Mostly Cloudy
2:30 PM 41.0 °F 39.0 °F 37.4 °F 87% 29.59 in 3.7 mi Variable 3.5 mph - N/A   Mostly Cloudy
3:00 PM 41 °F - 37 °F 80%  in 4 mi ENE 4.5 mph - -   Mist
3:00 PM 41.0 °F - 37.4 °F 87% 29.59 in 3.7 mi Variable 2.3 mph - N/A   Mostly Cloudy
3:30 PM 41.0 °F 39.0 °F 37.4 °F 87% 29.59 in 3.7 mi NE 3.5 mph - N/A   Mostly Cloudy
4:00 PM 42 °F - 37 °F 75%  in 4 mi ENE 4.5 mph - -   Mist
4:00 PM 41.0 °F 39.0 °F 37.4 °F 87% 29.59 in 3.7 mi NNE 3.5 mph - N/A   Mostly Cloudy
4:30 PM 41.0 °F - 37.4 °F 87% 29.62 in 3.7 mi Variable 2.3 mph - N/A   Mostly Cloudy
5:00 PM 42 °F - 37 °F 75%  in 4 mi ENE 2.2 mph - -   Mist
5:00 PM 41.0 °F - 37.4 °F 87% 29.62 in 3.7 mi Variable 1.2 mph - N/A   Mostly Cloudy
5:30 PM 41.0 °F - 37.4 °F 87% 29.62 in 3.7 mi North 2.3 mph - N/A   Mostly Cloudy
6:00 PM 40 °F - 36 °F 82%  in 4 mi NNE 2.2 mph - -   Mist
6:00 PM 41.0 °F - 37.4 °F 87% 29.65 in 3.7 mi North 2.3 mph - N/A   Mostly Cloudy
6:30 PM 39.2 °F - 35.6 °F 87% 29.65 in 3.7 mi Variable 1.2 mph - N/A   Scattered Clouds
7:00 PM 38 °F - 36 °F 90%  in 4 mi North 2.2 mph - -   Mist
7:00 PM 37.4 °F 34.9 °F 35.6 °F 93% 29.65 in 3.7 mi NNW 3.5 mph - N/A   Partly Cloudy
7:30 PM 37.4 °F - 35.6 °F 93% 29.68 in 3.7 mi North 2.3 mph - N/A   Unknown
8:00 PM 38 °F - 36 °F 89%  in 3 mi North 2.2 mph - -   Mist
8:00 PM 37.4 °F - 35.6 °F 93% 29.68 in 3.1 mi Variable 1.2 mph - N/A   Mist
9:00 PM 36 °F - 35 °F 93%  in 3 mi West 2.2 mph - -   Mist
9:00 PM 35.6 °F - 33.8 °F 93% 29.71 in 3.1 mi Calm Calm - N/A   Mist
10:00 PM 36 °F - 35 °F 96%  in 2 mi South 2.2 mph - -   Mist
10:00 PM 35.6 °F - 35.6 °F 100% 29.71 in 1.9 mi East 2.3 mph - N/A   Mist
11:00 PM 36 °F - 35 °F 94%  in 4 mi NNW 4.5 mph - - Fog Patches of Fog
11:00 PM 35.6 °F - 35.6 °F 100% 29.74 in 3.7 mi Calm Calm - N/A Fog Patches of Fog